Simultaneous Nadir Overpasses (SNOs) Predictions

Prediction of SNOs between GOES-16 and METOP-B Satellite Orbit:

Table of predicted SNOs for the next 14.0 days since TLE Epoch: 9/24/2022
Index Date Time (GOES-16) GOES-16 Lat,Lon METOP-B Lat,Lon Distance(km) Time Diff (sec)
1 09/24/2022 14:44:48 -0.05, -75.20 0.77, -78.95 426.34 80
2 09/25/2022 14:26:49 -0.05, -75.21 -0.34, -73.95 143.16 80
3 09/27/2022 02:43:11 0.05, -75.20 -0.67, -78.56 381.64 80
4 09/28/2022 02:25:13 0.05, -75.21 0.44, -73.56 188.11 80
5 09/29/2022 14:41:25 -0.05, -75.24 0.61, -78.12 328.83 80
6 09/30/2022 14:23:27 -0.05, -75.24 -0.50, -73.13 240.96 80
7 10/02/2022 02:39:49 0.05, -75.24 -0.51, -77.73 283.63 80
8 10/03/2022 02:21:51 0.04, -75.25 0.60, -72.74 286.21 80
9 10/04/2022 14:38:03 -0.04, -75.28 0.44, -77.29 230.33 80
10 10/05/2022 14:17:24 -0.04, -75.29 -0.67, -72.30 339.96 80
11 10/07/2022 02:39:07 0.03, -75.29 -0.32, -76.90 183.31 80
